Location: Unspecified
(48.5670°N, 0.0000°E)
Time: 17:15:55
(UTC+00:00)

Transit 4A - Pass Details

Date: 27 August 2019
Orbit: 866 x 978 km, 66.8° (Epoch: 15 October)

Event Time Altitude Azimuth Distance (km) Brightness Sun altitude
Rises 22:16:50 0° 315° (NW) 3,669 12.2 -27.1°
Reaches altitude 10° 22:20:36 10° 336° (NNW) 2,705 11.3 -27.4°
Maximum altitude 22:24:22 16° 13° (NNE) 2,271 10.4 -27.7°
Drops below altitude 10° 22:28:05 10° 50° (NE) 2,661 10.4 -28.0°
Sets 22:31:43 0° 72° (ENE) 3,579 10.9 -28.3°
